Fredericksburg, VA

1:22 PM EST on December 06, 2019 (GMT -0500)
Shannon

Weather History for KEZF - October, 2019

Change the Weather History Date:

Thursday, October 31, 2019

  Actual Average (WUND) Record (WUND)
Temperature  
Mean Temperature 68 °F -  
Max Temperature 79 °F - - (-1)
Min Temperature 57 °F - - (-1)
Cooling Degree Days 4    
Growing Degree Days 18 (Base 50)    
Moisture  
Dew Point 68 °F    
Average Humidity 91    
Maximum Humidity 100    
Minimum Humidity 70    
Precipitation  
Precipitation 0.30 in - - ()
Sea Level Pressure  
Sea Level Pressure 29.80 in    
Wind  
Wind Speed 9 mph ()    
Max Wind Speed 24 mph    
Max Gust Speed 39 mph    
Visibility 9.8 miles    
Events Rain    
Averages and records for this station are not official NWS values.
T = Trace of Precipitation, MM = Missing Value Source: Averaged Metar Reports

Daily Weather History Graph

Daily Weather History Graph

Search for Another Location

Airport or City:

Astronomy

Oct. 31, 2019 Rise Set
Actual Time 7:34 AM EDT 6:11 PM EDT
Civil Twilight 7:07 AM EDT 6:38 PM EDT
Nautical Twilight 6:36 AM EDT 7:10 PM EDT
Astronomical Twilight 6:05 AM EDT 7:40 PM EDT
Moon 11:18 AM EDT (10/31) 9:08 PM EDT (10/31)
Length of Visible Light 11h 31m
Length of Day
10h 37m
Waxing Crescent, 15% of the Moon is Illuminated
Oct 31
Waxing Crescent
Nov 4
First Quarter
Nov 12
Full
Nov 19
Last Quarter
Nov 26
New

Hourly Weather History & Observations

Time (EDT) Temp. Dew Point Humidity Pressure Visibility Wind Dir Wind Speed Gust Speed Precip Events Conditions
12:15 AM 62.4 °F 62.4 °F 100% 30.04 in 10.0 mi SSE 4.6 mph - N/A   Overcast
12:35 AM 62.6 °F 62.6 °F 100% 30.03 in 10.0 mi SSE 6.9 mph - N/A   Overcast
1:15 AM 63.0 °F 63.0 °F 100% 30.02 in 10.0 mi South 5.8 mph - N/A   Light Drizzle
1:35 AM 63.0 °F 63.0 °F 100% 30.01 in 10.0 mi South 6.9 mph - N/A   Overcast
1:55 AM 63.1 °F 63.1 °F 100% 30.01 in 10.0 mi SSE 3.5 mph - N/A   Overcast
2:15 AM 63.5 °F 63.5 °F 100% 30.00 in 10.0 mi SSE 4.6 mph - N/A   Drizzle
2:35 AM 63.5 °F 63.5 °F 100% 29.99 in 10.0 mi SSE 5.8 mph - N/A Rain Rain
2:55 AM 63.9 °F 63.9 °F 100% 29.98 in 7.0 mi South 4.6 mph - N/A Rain Rain
3:15 AM 64.4 °F 64.4 °F 100% 29.97 in 10.0 mi South 5.8 mph - N/A Rain Light Rain
3:35 AM 64.9 °F 64.9 °F 100% 29.96 in 7.0 mi South 5.8 mph - N/A Rain Heavy Rain
4:15 AM 66.0 °F 66.0 °F 100% 29.96 in 10.0 mi South 8.1 mph - N/A   Overcast
4:35 AM 66.4 °F 66.4 °F 100% 29.95 in 10.0 mi South 6.9 mph - N/A   Overcast
4:55 AM 66.6 °F 66.6 °F 100% 29.94 in 10.0 mi South 8.1 mph - N/A   Overcast
5:15 AM 67.1 °F 67.1 °F 100% 29.94 in 10.0 mi South 8.1 mph - N/A   Overcast
5:35 AM 67.5 °F 67.5 °F 100% 29.94 in 10.0 mi South 5.8 mph - N/A   Overcast
5:55 AM 67.6 °F 67.6 °F 100% 29.94 in 10.0 mi South 5.8 mph - N/A Rain Light Rain
6:15 AM 67.6 °F 67.6 °F 100% 29.92 in 10.0 mi South 8.1 mph - N/A   Overcast
6:35 AM 68.0 °F 68.0 °F 100% 29.92 in 10.0 mi South 8.1 mph - N/A Rain Light Rain
6:55 AM 68.0 °F 68.0 °F 100% 29.91 in 10.0 mi South 8.1 mph - N/A   Overcast
7:15 AM 68.2 °F 68.2 °F 100% 29.91 in 10.0 mi South 5.8 mph - N/A   Overcast
7:55 AM 68.9 °F 68.9 °F 100% 29.91 in 10.0 mi South 10.4 mph 17.3 mph N/A   Overcast
8:15 AM 69.1 °F 68.9 °F 99% 29.91 in 10.0 mi South 10.4 mph 19.6 mph N/A   Overcast
8:35 AM 69.3 °F 68.9 °F 99% 29.91 in 10.0 mi South 10.4 mph - N/A   Overcast
8:55 AM 69.6 °F 69.1 °F 98% 29.90 in 10.0 mi South 6.9 mph - N/A   Overcast
9:15 AM 70.0 °F 69.3 °F 98% 29.90 in 10.0 mi South 10.4 mph - N/A   Overcast
9:35 AM 70.0 °F 69.4 °F 98% 29.89 in 10.0 mi South 10.4 mph - N/A   Overcast
9:55 AM 70.3 °F 69.8 °F 98% 29.88 in 10.0 mi South 10.4 mph - N/A Rain Light Rain
10:15 AM 70.9 °F 70.2 °F 98% 29.88 in 10.0 mi South 11.5 mph - N/A   Overcast
10:35 AM 71.8 °F 70.7 °F 96% 29.87 in 10.0 mi South 11.5 mph 17.3 mph N/A   Overcast
10:55 AM 72.0 °F 70.7 °F 96% 29.88 in 10.0 mi South 10.4 mph 18.4 mph N/A   Overcast
11:15 AM 72.0 °F 70.7 °F 96% 29.87 in 10.0 mi South 10.4 mph 16.1 mph 0.01 in   Light Drizzle
11:35 AM 73.2 °F 71.1 °F 93% 29.86 in 10.0 mi South 15.0 mph 18.4 mph 0.01 in   Overcast
11:55 AM 73.4 °F 71.2 °F 93% 29.85 in 10.0 mi South 10.4 mph 17.3 mph 0.01 in   Overcast
12:15 PM 73.4 °F 71.6 °F 94% 29.83 in 10.0 mi South 10.4 mph 19.6 mph N/A Rain Rain
12:35 PM 73.4 °F 72.0 °F 95% 29.83 in 10.0 mi South 11.5 mph 17.3 mph N/A Rain Light Rain
12:55 PM 73.8 °F 72.1 °F 95% 29.81 in 10.0 mi SSE 10.4 mph 18.4 mph N/A   Overcast
1:15 PM 74.3 °F 72.3 °F 94% 29.80 in 10.0 mi South 12.7 mph 21.9 mph N/A   Overcast
1:55 PM 74.8 °F 72.7 °F 93% 29.75 in 10.0 mi South 15.0 mph 25.3 mph N/A   Overcast
2:15 PM 75.7 °F 72.9 °F 91% 29.74 in 10.0 mi South 12.7 mph 19.6 mph N/A   Overcast
2:35 PM 77.0 °F 72.9 °F 87% 29.73 in 10.0 mi South 16.1 mph 24.2 mph N/A   Overcast
2:55 PM 76.8 °F 72.5 °F 86% 29.72 in 10.0 mi South 12.7 mph 20.7 mph N/A   Overcast
3:15 PM 77.5 °F 72.7 °F 85% 29.70 in 10.0 mi South 12.7 mph 19.6 mph N/A   Mostly Cloudy
3:35 PM 77.9 °F 72.5 °F 83% 29.70 in 10.0 mi South 12.7 mph 17.3 mph N/A   Mostly Cloudy
3:55 PM 78.3 °F 72.5 °F 82% 29.68 in 10.0 mi South 12.7 mph 21.9 mph N/A   Overcast
4:15 PM 78.8 °F 72.5 °F 81% 29.67 in 10.0 mi South 13.8 mph 19.6 mph N/A   Mostly Cloudy
4:35 PM 78.8 °F 72.1 °F 80% 29.67 in 10.0 mi South 15.0 mph 23.0 mph N/A   Mostly Cloudy
4:55 PM 79.3 °F 72.1 °F 79% 29.65 in 10.0 mi SSE 12.7 mph 20.7 mph N/A   Overcast
5:15 PM 79.7 °F 71.8 °F 77% 29.64 in 10.0 mi SSE 13.8 mph 25.3 mph N/A   Mostly Cloudy
5:35 PM 79.3 °F 71.8 °F 78% 29.63 in 10.0 mi South 11.5 mph 28.8 mph N/A   Scattered Clouds
5:55 PM 79.3 °F 71.6 °F 77% 29.62 in 10.0 mi South 17.3 mph 25.3 mph N/A   Mostly Cloudy
6:15 PM 79.0 °F 71.6 °F 78% 29.61 in 10.0 mi South 12.7 mph 25.3 mph N/A   Scattered Clouds
6:35 PM 78.8 °F 71.6 °F 78% 29.60 in 10.0 mi South 15.0 mph 25.3 mph N/A   Mostly Cloudy
6:55 PM 79.0 °F 71.6 °F 78% 29.59 in 10.0 mi South 16.1 mph 27.6 mph N/A   Mostly Cloudy
7:15 PM 79.0 °F 71.6 °F 78% 29.59 in 10.0 mi South 17.3 mph 26.5 mph N/A   Mostly Cloudy
7:35 PM 79.0 °F 71.6 °F 78% 29.57 in 10.0 mi South 19.6 mph 32.2 mph N/A   Mostly Cloudy
7:55 PM 79.2 °F 71.8 °F 78% 29.56 in 10.0 mi South 19.6 mph 39.1 mph N/A   Overcast
8:15 PM 79.3 °F 71.4 °F 77% 29.55 in 10.0 mi South 23.0 mph 34.5 mph N/A   Mostly Cloudy
8:55 PM 76.6 °F 72.5 °F 87% 29.56 in 7.0 mi South 23.0 mph 39.1 mph 0.02 in Rain Rain
9:35 PM 75.6 °F 72.5 °F 90% 29.56 in 10.0 mi South 17.3 mph 26.5 mph 0.02 in   Overcast
9:55 PM 75.2 °F 72.5 °F 91% 29.56 in 10.0 mi South 17.3 mph 32.2 mph 0.02 in Rain Light Rain
10:15 PM 74.8 °F 72.5 °F 92% 29.59 in 10.0 mi SW 12.7 mph 28.8 mph N/A Rain Rain
10:35 PM 66.4 °F 65.5 °F 97% 29.65 in 7.0 mi West 15.0 mph 23.0 mph 0.24 in Rain Light Rain
10:55 PM 63.5 °F 55.6 °F 75% 29.71 in 10.0 mi West 24.2 mph 39.1 mph 0.25 in   Overcast
11:15 PM 61.0 °F 51.3 °F 70% 29.73 in 10.0 mi West 18.4 mph 35.7 mph N/A Rain Light Rain
11:35 PM 58.6 °F 52.0 °F 79% 29.75 in 10.0 mi West 13.8 mph 25.3 mph N/A Rain Light Rain
11:55 PM 57.2 °F 51.6 °F 82% 29.77 in 10.0 mi WSW 10.4 mph 19.6 mph N/A Rain Light Rain